Regional Weather Roundup
Issued by NWS

Home | Current Version | Previous Version | Graphics & Text | Print | Product List | Glossary On
Versions: 1 2 3 4 5 6 7 8 9 10 11 12 13 14 15 16 17 18 19 20 21 22 23 24 25 26 27 28 29 30 31 32 33 34 35 36 37 38 39 40 41 42 43 44 45 46 47 48 49 50
000
ASUS43 KMPX 271701
RWRMN
WEATHER ROUNDUP FOR MINNESOTA
NATIONAL WEATHER SERVICE TWIN CITIES/CHANHASSEN MN
1200 PM CDT THU APR 27 2017


NOTE: "FAIR" INDICATES FEW OR NO CLOUDS BELOW 12,000 FEET WITH NO
SIGNIFICANT WEATHER AND/OR OBSTRUCTIONS TO VISIBILITY. N/A MEANS
CURRENT SKY AND/OR WEATHER CONDITIONS ARE NOT AVAILABLE.

MNZ060>063-068>070-271800-
   Twin Cities Metro

CITY           SKY/WX    TMP DP  RH WIND       PRES   REMARKS
TWIN CITIES    CLOUDY    34  26  72 NW12      29.58R WCI  25
ST PAUL        CLOUDY    34  26  72 NW15      29.59R WCI  24
CRYSTAL        CLOUDY    32  23  69 NW13      29.58R WCI  22
BLAINE         CLOUDY    34  28  80 NW14      29.58R WCI  24
LAKEVILLE      CLOUDY    34  30  86 W13       29.58R WCI  25
EDEN PRAIRIE   CLOUDY    34  26  72 NW12      29.58R WCI  25
SOUTH ST PAUL  CLOUDY    34  26  72 NW12G18   29.57S WCI  26
LAKE ELMO      CLOUDY    32  30  93 NW12      29.57S WCI  23
$$
MNZ001>005-007-008-013>017-022>024-027-028-271800-
   Northwest Minnesota

CITY           SKY/WX    TMP DP  RH WIND       PRES   REMARKS
BEMIDJI        CLOUDY    25  19  79 N14G20    29.60S WCI  13
HALLOCK        PTSUNNY   36  21  55 N15       29.69S
ROSEAU         CLOUDY    28  21  74 N14       29.67R WCI  17
WARROAD        CLOUDY    27  21  80 N14       29.66S WCI  15
THIEF RVR FALL CLOUDY    31  21  66 N18       29.67S WCI  19
CROOKSTON      CLOUDY    30  25  80 N17       29.70S WCI  18
FOSSTON        CLOUDY    30  19  64 N17       29.65S WCI  18
DETROIT LAKES  CLOUDY    28  23  80 N17G23    29.64S WCI  16
MOORHEAD       CLOUDY    28  23  80 N8        29.70S WCI  20
PARK RAPIDS    CLOUDY    27  18  69 NW16      29.59S WCI  15
MAHNOMEN       CLOUDY    28  21  76 N7        29.64S WCI  20
$$
MNZ006-009>011-018-025>026-271800-
   North Central Minnesota

CITY           SKY/WX    TMP DP  RH WIND       PRES   REMARKS
BAUDETTE       CLOUDY    26  16  65 N18       29.62R WCI  13
FLAG ISLAND    LGT SNOW  27  21  80 N20G28    29.65S WCI  13
INTL FALLS     CLOUDY    25  14  63 N12       29.58S WCI  14
WASKISH        CLOUDY    27  18  69 N13G20    29.62R WCI  16
BIG FORK       CLOUDY    27  16  63 N9        29.57S WCI  17
LONGVILLE      CLOUDY    27  19  74 NW3       29.58S
GRAND RAPIDS   FLURRIES  24  18  77 NW15      29.57S WCI  11
CRANE LAKE     CLOUDY    23  16  74 NW7       29.57S WCI  15
ORR            CLOUDY    25  14  63 NW7       29.52S WCI  17
COOK           CLOUDY    25  16  68 NW6       29.53F WCI  18
WALKER         CLOUDY    25  18  74 NW12      29.59S WCI  14
$$
MNZ012-019>021-037-271800-
   Northeast Minnesota

CITY           SKY/WX    TMP DP  RH WIND       PRES   REMARKS
DULUTH         CLOUDY    25  20  81 NW15G21   29.48F WCI  13
ELY            FLURRIES  25  16  68 NW10G18   29.48F WCI  15
HIBBING        CLOUDY    24  17  74 NW16      29.52F WCI  11
EVELETH        CLOUDY    25  17  70 NW14      29.52S WCI  13
DULUTH HARBOR  CLOUDY    28  21  74 NW14      29.54S WCI  17
TWO HARBORS    CLOUDY    28  21  74 NW13G18   29.46F WCI  18
SILVER BAY     CLOUDY    25  21  86 NW10      29.45S WCI  15
G MARAIS ARPRT CLOUDY    18  12  79 NW5       29.39R WCI  11
$$
MNZ029>031-032-039>041-046>048-054>057-064-271800-
   West Central Minnesota

CITY           SKY/WX    TMP DP  RH WIND       PRES   REMARKS
FERGUS FALLS   CLOUDY    28  21  74 N16G26    29.66S WCI  17
WHEATON        CLOUDY    30  21  69 NW17G26   29.70R WCI  18
MORRIS         CLOUDY    30  21  69 NW21G26   29.65R WCI  17
ALEXANDRIA     CLOUDY    29  23  78 N13       29.62R WCI  19
ELBOW LAKE     CLOUDY    30  22  71 N16G24    29.65R WCI  18
WADENA         CLOUDY    25  19  80 N8        29.61R WCI  16
GLENWOOD       CLOUDY    28  25  86 N12       29.62R WCI  18
APPLETON       CLOUDY    34  21  60 N17G25    29.66R WCI  23
BENSON         CLOUDY    34  23  64 N15       29.66R WCI  24
ORTONVILLE     CLOUDY    32  21  64 N22G28    29.68R WCI  19
MADISON        CLOUDY    36  27  69 NW21      29.68R
WILLMAR        CLOUDY    32  27  80 NW14      29.64R WCI  22
$$
MNZ033>034-036-042>043-049>051-058-059-271800-
   Central Minnesota

CITY           SKY/WX    TMP DP  RH WIND       PRES   REMARKS
ST CLOUD       CLOUDY    29  24  82 NW13      29.60R WCI  19
SAUK CENTRE    CLOUDY    29  21  74 NW14G20   29.62R WCI  18
PAYNESVILLE    CLOUDY    30  24  78 NW10      29.62R WCI  21
AITKIN         CLOUDY    28  19  69 NW8       29.56S WCI  20
PINE RIVER     CLOUDY    25  19  80 NW6       29.63R WCI  18
BRAINERD       CLOUDY    26  19  74 NW12      29.59R WCI  16
STAPLES        CLOUDY    25  19  80 N8        29.60R WCI  16
LONG PRAIRIE   CLOUDY    28  21  74 NW12G20   29.62R WCI  18
LITTLE FALLS   CLOUDY    28  21  74 NW9G16    29.61R WCI  20
LITCHFIELD     CLOUDY    32  27  80 NW14      29.62R WCI  22
BUFFALO        CLOUDY    32  25  75 NW8       29.61R WCI  24
MAPLE LAKE     CLOUDY    32  28  85 NW12      29.61R WCI  23
HUTCHINSON     CLOUDY    34  28  78 W12G17    29.62R WCI  25
$$
MNZ037-044-045-052-053-271800-
   East Central Minnesota

CITY           SKY/WX    TMP DP  RH WIND       PRES   REMARKS
PRINCETON      CLOUDY    30  25  80 W10       29.59R WCI  21
MORA           CLOUDY    28  23  80 NW13      29.58S WCI  18
CAMBRIDGE      CLOUDY    32  23  69 W10       29.56R WCI  24
RUSH CITY      CLOUDY    29  23  77 NW6       29.56S WCI  23
MOOSE LAKE     CLOUDY    28  23  80 NW13      29.52S WCI  18
HINCKLEY       CLOUDY    30  25  80 NW9       29.56R WCI  22
CLOQUET        CLOUDY    27  19  74 NW13G20   29.51F WCI  16
MCGREGOR       CLOUDY    28  23  80 NW9       29.56S WCI  20
$$
MNZ071>073-080-081-089-090-097-098-271800-
   Southwest Minnesota

CITY           SKY/WX    TMP DP  RH WIND       PRES   REMARKS
MONTEVIDEO     CLOUDY    32  25  74 N14       29.66R WCI  22
GRANITE FALLS  CLOUDY    33  26  75 W18       29.68R WCI  22
CANBY          CLOUDY    34  26  73 W15G24    29.70R WCI  24
MARSHALL       CLOUDY    31  25  78 NW20      29.67R WCI  19
REDWOOD FALLS  CLOUDY    33  23  66 NW14G23   29.65R WCI  23
OLIVIA         CLOUDY    32  28  86 NW13G18   29.64R WCI  22
PIPESTONE      CLOUDY    34  23  64 NW15G22   29.66R WCI  24
WINDOM         CLOUDY    34  27  75 W18G24    29.65S WCI  23
WORTHINGTON    CLOUDY    35  24  64 NW14G24   29.67R WCI  26
JACKSON        CLOUDY    32  27  80 NW16G22   29.65F WCI  21
TRACY          CLOUDY    33  27  76 NW15      29.66S WCI  23
SLAYTON        CLOUDY    31  25  77 NW17G24   29.67R WCI  20
$$
MNZ065>067-074>077-082>085-091>093-271800-
   South Central Minnesota

CITY           SKY/WX    TMP DP  RH WIND       PRES   REMARKS
MANKATO        CLOUDY    33  29  85 W16       29.62R WCI  23
NEW ULM        CLOUDY    32  27  80 W15G22    29.63S WCI  22
ST JAMES       CLOUDY    34  28  80 W17       29.65S WCI  23
FAIRMONT       CLOUDY    34  26  72 NW15G22   29.65R WCI  24
GLENCOE        CLOUDY    34  30  85 W14       29.60R WCI  25
FARIBAULT      CLOUDY    34  30  86 W14       29.59R WCI  24
OWATONNA       CLOUDY    36  30  80 W16       29.59R
WASECA         CLOUDY    34  30  86 W17       29.62R WCI  23
ALBERT LEA     CLOUDY    34  28  80 W9G20     29.60S WCI  26
$$
MNZ078>079-086>088-094>096-271800-
   Southeast Minnesota

CITY           SKY/WX    TMP DP  RH WIND       PRES   REMARKS
ROCHESTER      CLOUDY    36  32  85 W17       29.56R
RED WING       CLOUDY    36  27  69 NW12G20   29.56R
STANTON        CLOUDY    35  32  88 NW13      29.57R FOG     WCI  26
DODGE CENTER   CLOUDY    34  30  86 W14       29.57R FOG     WCI  24
WINONA         CLOUDY    37  32  81 NW9       29.55R
AUSTIN         CLOUDY    36  28  75 W16       29.58S
PRESTON        CLOUDY    36  31  81 W18       29.57R
$$
ABBREVIATIONS USED IN REMARKS
   TC - TEMPERATURES IN CELSIUS
  WCI - WIND CHILL INDEX
   HX - HEAT INDEX
  VSB - VISIBILITY
$$




USA.gov is the U.S. government's official web portal to all federal, state and local government web resources and services.